Theta_e
322 316 313 316 317 316 315 313 312 316 320 316 318 319 323 326 326 326 326 328 329 331 336 337 336 336 339 348 352 359 360 365 358 352 347 345 343 348 348 349 345 343 341 341
318 314 319 321 318 316 315 313 312 317 318 319 318 318 321 322 324 326 326 327 328 332 335 336 338 339 341 346 350 355 358 360 358 352 352 348 345 342 341 347 346 344 343 342
314 317 320 319 316 314 314 313 312 312 315 318 317 315 314 319 322 326 327 329 332 330 330 336 338 342 339 342 347 350 355 357 357 357 355 353 349 348 345 343 346 342 342 342
316 320 318 316 314 315 311 316 314 312 313 307 317 306 313 317 318 322 325 327 329 330 332 334 336 342 343 342 345 348 351 355 354 357 353 353 344 339 338 345 344 342 341 341
313 315 315 314 314 317 313 317 314 316 312 311 309 306 311 315 310 314 322 325 327 328 328 329 331 335 342 346 343 347 351 354 355 353 355 351 345 341 345 345 346 342 341 344
316 321 318 316 317 317 318 316 317 316 312 304 307 306 307 313 315 316 324 322 323 326 328 330 333 335 337 344 344 346 348 352 353 354 352 350 347 348 343 344 340 343 341 342
314 315 318 319 314 317 317 314 305 305 306 301 312 308 311 316 318 321 320 322 324 326 327 328 331 331 337 338 343 343 346 348 351 350 349 348 347 347 344 343 337 340 335 338
308 305 315 318 314 312 313 313 306 300 300 303 312 303 309 316 318 322 322 325 325 326 327 327 331 331 330 335 343 340 345 345 347 347 348 349 349 344 343 342 339 341 339 335
309 309 318 317 318 317 312 309 315 310 309 305 307 310 316 317 318 321 323 325 325 327 327 326 330 331 332 337 342 341 343 348 348 344 346 345 344 347 343 345 344 342 344 343
314 308 317 317 318 318 314 317 310 309 303 299 301 305 308 315 316 321 320 324 326 328 325 325 328 333 334 333 338 341 340 343 350 347 348 348 349 347 346 345 342 343 345 346
316 315 312 316 313 312 313 311 314 314 310 302 299 303 318 315 316 316 319 325 326 326 324 324 327 331 334 333 331 338 339 343 346 348 348 349 350 347 346 345 342 344 344 345
317 319 308 310 317 320 316 313 314 307 306 310 306 305 318 317 318 318 319 326 328 327 326 325 326 330 334 333 333 338 341 340 343 342 345 338 348 346 341 345 345 345 343 344
320 313 305 308 313 318 312 314 315 317 320 310 303 306 320 319 317 320 325 327 328 326 326 326 327 329 333 333 336 336 338 340 343 342 340 340 344 345 347 345 347 345 342 343
329 320 313 306 309 312 312 314 315 314 308 308 307 310 317 317 315 324 329 327 325 325 326 327 328 329 330 333 335 338 339 341 341 341 337 340 339 341 344 346 345 343 343 341
321 313 312 313 313 314 311 310 311 310 312 308 311 311 318 319 321 322 328 327 324 324 325 325 328 330 329 331 335 338 341 341 342 338 338 336 338 339 340 342 343 344 342 341
327 315 315 310 313 313 309 313 313 312 313 313 314 313 321 320 318 320 323 327 323 324 324 325 328 331 330 329 332 337 338 340 340 337 334 333 336 335 339 339 338 341 341 341
326 320 317 308 314 313 309 313 312 315 317 314 309 315 322 321 319 317 319 327 325 325 325 325 329 332 334 331 335 335 336 339 338 335 332 330 332 330 332 332 333 334 336 338
326 327 317 309 312 301 313 318 317 314 315 317 317 318 324 322 325 321 325 325 326 326 326 327 329 332 335 332 334 333 335 337 336 334 328 326 326 328 331 332 333 336 337 335
329 325 312 309 307 311 314 313 311 312 314 320 319 320 323 325 327 329 329 330 329 329 329 330 332 333 338 334 334 332 332 335 332 330 327 327 326 328 329 330 333 336 336 336
327 330 316 310 305 303 316 315 320 320 308 326 319 316 314 320 317 323 330 330 330 331 332 332 333 336 339 338 340 333 333 332 332 331 328 329 329 329 329 331 334 336 336 332
313 314 308 309 306 310 320 320 323 308 318 332 326 321 318 323 331 338 333 332 332 334 335 336 335 336 342 341 341 336 335 333 335 333 330 331 333 333 332 334 336 334 333 332
316 310 304 307 306 306 322 320 315 329 339 333 331 335 335 335 332 333 333 334 335 333 331 333 336 337 342 341 338 336 335 340 337 333 332 333 335 329 327 334 334 333 330 329
314 318 312 306 313 327 327 325 330 336 332 333 338 337 335 336 335 333 335 337 336 332 336 334 336 339 342 340 339 335 339 336 335 335 336 335 333 332 333 333 330 327 326 325
320 321 318 321 323 324 327 328 334 334 332 332 335 337 336 335 334 336 336 338 329 336 338 338 339 337 340 340 339 338 338 336 335 335 336 332 329 327 329 329 330 326 322 319
317 317 316 321 323 319 322 332 332 330 330 329 331 333 333 335 335 334 334 339 338 336 334 340 339 340 339 341 338 339 338 337 335 335 331 326 321 323 324 329 324 323 327 319
319 321 315 315 325 326 327 332 330 327 327 328 329 330 331 332 333 334 335 338 338 336 338 340 342 344 340 339 337 337 337 338 334 330 324 326 327 320 321 323 324 308 310 305
Wind_Speed
18 16 3 29 9 12 14 17 16 9 14 18 12 10 7 15 9 8 5 9 7 7 15 10 6 6 6 4 4 3 3 4 5 5 6 6 6 4 3 3 6 6 5 6
18 8 12 24 12 15 14 16 14 12 12 7 10 12 16 23 19 8 11 10 9 9 11 11 9 6 3 5 3 2 4 5 4 4 4 5 4 4 4 4 4 5 6 5
17 9 10 21 12 16 16 13 15 17 20 4 15 16 12 7 25 23 13 5 10 2 3 10 10 8 9 8 6 5 4 6 5 6 3 2 3 3 1 3 2 4 4 4
16 14 10 6 14 17 14 19 21 18 18 10 21 5 7 9 14 22 23 37 11 9 9 7 6 12 10 11 10 7 6 5 5 5 4 4 2 3 5 3 4 5 8 6
13 17 16 10 12 15 15 18 15 12 11 7 9 1 2 5 6 24 15 7 5 5 7 5 3 5 8 12 10 7 7 5 3 5 4 2 4 5 4 1 5 2 5 6
20 14 17 9 12 14 10 14 2 10 5 7 6 9 4 10 9 19 7 5 2 4 9 13 14 13 12 8 8 8 10 7 6 4 4 4 6 3 4 1 5 3 4 6
19 19 17 12 9 18 10 14 9 3 1 6 8 9 9 17 16 24 10 10 4 6 13 13 14 12 12 10 10 4 11 9 7 5 5 5 6 5 7 3 6 6 3 3
16 7 10 6 4 9 13 13 7 14 11 14 7 2 3 14 21 23 5 8 5 10 10 8 13 10 9 6 7 7 4 9 9 8 7 6 6 5 5 6 7 6 3 2
13 9 10 5 5 12 7 10 13 16 14 4 10 9 12 6 19 25 12 11 7 6 5 9 15 11 9 7 7 6 6 3 5 7 4 3 5 5 6 6 5 7 5 4
13 9 9 9 3 11 12 9 7 5 11 7 8 7 6 9 21 14 25 12 9 3 10 7 12 11 8 9 9 10 8 7 10 6 3 2 3 6 6 6 6 7 4 5
8 6 13 16 9 13 5 4 1 3 3 2 2 7 6 4 5 15 26 5 9 8 8 8 10 9 9 10 11 9 7 11 5 2 2 4 3 5 6 4 6 4 6 5
10 6 9 15 8 14 11 14 13 4 4 4 3 4 13 19 20 25 16 8 9 5 8 10 9 9 11 10 9 9 9 9 6 5 4 5 3 5 3 2 6 3 5 5
5 2 7 16 11 3 5 7 19 6 5 11 12 3 20 23 19 20 11 12 12 12 8 11 7 9 11 9 7 9 7 6 5 5 7 6 5 4 2 4 3 4 5 6
6 5 8 11 14 10 9 16 16 4 4 10 12 12 9 10 14 25 6 7 11 10 9 9 7 9 10 8 6 7 6 5 6 4 2 4 5 4 6 4 4 2 3 5
1 5 12 15 19 18 15 14 16 14 10 11 11 15 14 8 7 12 6 11 4 11 10 9 9 8 9 7 5 7 5 5 5 6 4 4 4 7 7 7 5 3 3 2
5 7 12 16 18 17 19 18 13 16 12 9 13 12 3 6 9 12 29 12 7 12 10 8 7 7 7 5 4 6 3 4 3 4 6 6 5 5 4 5 6 4 4 4
7 7 9 14 18 12 14 6 19 13 15 16 14 12 8 6 4 15 18 10 8 12 8 5 6 8 5 1 3 4 3 1 2 2 4 4 2 5 3 4 5 5 4 5
8 7 9 12 14 19 8 12 8 6 21 9 12 6 14 11 20 8 21 9 10 9 7 5 7 7 4 2 3 2 3 4 3 2 3 3 2 3 3 3 3 2 2 4
10 8 11 11 13 18 6 7 7 7 10 12 13 21 8 9 8 6 8 11 10 6 6 6 7 7 4 2 3 1 3 3 6 5 1 4 3 3 4 3 3 3 3 4
13 10 8 11 16 20 7 9 19 26 5 13 19 23 25 27 7 9 8 12 10 7 6 6 7 10 6 4 4 3 2 5 6 3 2 5 2 1 3 1 2 3 4 5
3 6 5 17 14 18 10 16 15 10 6 11 9 12 21 12 4 5 3 4 4 7 8 8 6 5 6 4 4 4 5 6 2 2 4 7 1 3 5 1 2 4 4 4
9 8 5 9 11 11 12 16 10 5 6 9 9 9 10 11 7 6 9 7 9 7 6 8 6 8 9 8 6 7 8 4 4 4 7 4 0 0 3 2 2 5 5 6
12 4 7 9 14 10 8 7 13 8 6 8 10 9 11 11 12 10 8 9 10 7 2 10 8 11 9 10 8 8 6 5 5 5 4 4 2 1 0 3 5 5 5 3
6 17 10 6 9 5 8 7 5 9 6 7 9 10 10 12 11 13 10 7 5 10 6 10 8 8 10 11 10 9 7 5 5 4 4 3 1 3 4 5 2 2 2 4
3 10 20 8 6 8 27 14 12 9 9 11 11 11 13 11 11 11 12 9 8 7 6 7 8 9 11 11 11 9 8 7 6 4 5 9 5 4 9 6 4 4 4 5
12 10 9 7 8 8 7 6 8 7 11 11 13 10 9 13 15 15 11 10 9 9 9 8 9 10 12 15 13 10 9 6 3 9 7 2 2 5 6 3 5 3 6 9
Wind_Direction
267 258 42 298 338 339 312 320 349 112 154 191 59 90 149 165 144 151 186 174 210 216 130 134 145 133 123 127 143 164 184 146 146 154 179 226 214 183 188 225 202 164 176 221
254 267 9 310 317 303 290 308 347 307 2 14 102 64 41 31 321 183 203 170 240 199 153 148 161 146 155 133 138 165 181 157 181 200 192 217 208 196 180 186 208 174 168 210
275 268 192 247 295 300 317 318 346 332 326 334 13 60 48 50 294 316 326 224 172 304 56 166 183 157 154 151 164 181 191 163 193 250 191 86 38 49 44 280 186 167 189 227
273 281 267 301 294 283 309 348 331 330 0 48 360 68 77 239 282 320 91 258 179 141 184 163 185 183 175 167 163 170 176 175 192 264 266 150 204 235 213 244 206 190 185 205
268 288 314 281 316 334 316 322 319 21 13 353 350 34 264 309 252 247 265 100 108 208 133 181 149 123 155 164 153 166 158 166 229 191 274 306 196 288 250 21 301 180 163 189
287 286 289 275 283 303 301 287 211 53 25 340 208 174 267 227 232 253 166 98 205 228 149 78 54 52 47 116 144 150 152 161 173 216 212 273 313 287 307 286 320 213 194 190
256 251 245 255 313 284 236 299 315 258 49 234 237 231 185 221 242 278 157 165 121 20 59 65 57 36 60 42 34 354 151 156 169 201 215 217 235 260 285 267 269 282 239 179
287 336 268 160 250 318 317 299 310 321 327 352 178 84 232 275 306 287 162 120 80 55 55 68 86 52 44 62 57 14 73 151 169 186 199 208 226 228 239 230 253 266 262 265
284 316 148 197 309 300 322 319 346 332 287 332 69 5 304 315 278 281 181 115 101 96 98 70 96 78 50 62 101 50 31 116 86 61 77 211 214 216 254 279 273 245 245 266
269 312 287 120 216 265 246 295 331 333 317 23 143 208 230 185 237 330 338 135 115 196 79 68 89 93 63 41 64 58 6 62 83 79 100 276 259 244 244 265 262 271 306 314
266 270 290 315 278 276 193 223 238 299 313 22 293 122 127 91 163 272 248 149 138 96 60 62 85 79 77 53 31 61 18 79 71 73 234 258 213 234 219 233 272 257 249 249
230 228 269 281 337 37 29 337 303 310 339 210 211 161 193 180 208 224 249 133 80 54 74 68 63 66 82 63 46 61 48 40 10 345 268 81 301 307 43 299 260 234 261 235
293 260 259 263 233 51 317 268 256 248 227 275 303 106 194 206 214 240 197 127 141 108 73 74 36 56 79 67 65 63 51 18 15 325 60 46 16 354 15 331 306 272 245 253
14 301 271 289 317 300 219 234 268 288 253 288 295 334 101 101 78 314 130 131 88 92 81 82 53 54 72 62 47 77 63 45 349 347 21 58 39 352 33 48 357 327 265 273
206 264 273 278 285 290 301 289 284 291 287 276 323 336 71 82 149 229 187 103 140 106 81 64 65 56 48 49 47 82 60 58 334 342 350 103 46 50 28 32 43 28 330 326
184 266 264 279 283 281 278 289 279 277 291 308 324 301 219 203 67 101 262 140 140 84 71 66 67 75 61 30 41 73 74 59 345 360 343 61 60 66 49 42 20 37 19 12
190 251 265 270 287 321 305 304 352 346 339 330 333 338 238 292 153 213 253 152 110 101 95 83 88 88 92 1 84 54 66 7 271 360 340 71 84 115 83 48 24 10 3 343
283 256 267 279 280 274 8 111 192 7 315 313 311 286 216 121 245 18 266 126 93 98 110 109 103 110 111 73 85 37 12 260 13 255 2 1 346 35 59 93 50 353 356 336
201 261 284 284 282 279 216 38 311 167 284 345 28 7 347 212 167 198 140 94 88 106 131 146 122 123 138 176 103 304 289 6 283 96 327 288 336 29 16 31 18 336 325 295
203 198 249 270 285 291 253 122 216 248 246 38 81 43 332 296 314 59 82 119 138 147 174 154 142 130 168 197 136 230 282 263 266 129 215 269 303 355 338 346 334 304 301 282
80 349 74 296 252 262 30 181 253 277 43 342 108 178 209 253 59 102 89 120 138 181 186 161 162 174 157 175 165 213 241 246 220 135 237 251 229 100 248 137 14 289 278 288
180 148 179 240 317 243 354 350 3 334 322 326 337 344 335 324 298 197 189 198 198 195 197 190 199 177 171 178 194 217 235 227 218 223 246 272 92 256 321 73 253 264 275 271
245 282 167 150 212 209 204 174 228 232 0 337 336 315 312 303 304 297 288 222 221 190 216 224 210 182 176 174 197 226 229 240 232 249 232 245 218 247 46 253 251 262 280 254
329 20 297 289 308 293 250 290 95 67 30 334 319 305 295 297 302 308 300 306 223 243 225 230 209 209 183 177 187 204 227 233 233 236 269 223 216 304 197 249 267 264 159 96
240 92 239 282 316 49 293 48 40 22 346 335 320 317 320 298 290 290 297 290 295 299 268 242 232 213 198 181 180 184 200 218 216 208 55 75 64 40 284 251 214 239 211 167
302 300 318 315 305 316 306 89 38 318 298 303 287 289 329 326 319 316 310 306 297 294 295 282 239 215 206 191 158 171 198 202 137 67 58 30 212 241 259 262 263 217 197 199